Overview Statistics Trail Chart Weather Telemetry Raw packets
 

This is the latest recevied weather packets stored in our database for station/object WA6ODQ-13. If no packets are shown the sender has not sent any weather packets the latest 10 day(s).

<< 27 28 29 30 31 32 33 >>
Time Temp. Humidity Pressure Rain* Wind** Luminosity Snow
1788482528 20° C 80% 1010.3 hPa 0 mm - 137 W/m² -
1788482223 20.56° C 79% 1010.4 hPa 0 mm - 111 W/m² -
1788481918 20° C 78% 1010.3 hPa 0 mm - 97 W/m² -
1788481609 20° C 79% 1010.1 hPa 0 mm - 132 W/m² -
1788481304 20.56° C 79% 1010.2 hPa 0 mm - 142 W/m² -
1788480999 20.56° C 78% 1010.3 hPa 0 mm - 109 W/m² -
1788480698 20.56° C 79% 1010.4 hPa 0 mm - 175 W/m² -
1788480394 20.56° C 78% 1010.1 hPa 0 mm - 142 W/m² -
1788480089 20.56° C 77% 1010.2 hPa 0 mm - 208 W/m² -
1788479788 20.56° C 78% 1010.3 hPa 0 mm - 171 W/m² -
1788479485 20.56° C 77% 1010.3 hPa 0 mm - 406 W/m² -
1788479179 20.56° C 78% 1010.4 hPa 0 mm - 153 W/m² -
1788478875 20.56° C 78% 1010.5 hPa 0 mm - 161 W/m² -
1788478571 20.56° C 78% 1010.4 hPa 0 mm - 137 W/m² -
1788478267 20.56° C 77% 1010.6 hPa 0 mm - 167 W/m² -
1788477961 20.56° C 78% 1010.7 hPa 0 mm - 149 W/m² -
1788477656 20.56° C 79% 1010.6 hPa 0 mm - 222 W/m² -
1788477351 20.56° C 78% 1010.7 hPa 0 mm - 187 W/m² -
1788477045 20.56° C 78% 1011 hPa 0 mm - 148 W/m² -
1788476742 21.11° C 76% 1011.1 hPa 0 mm - 140 W/m² -
1788476440 21.11° C 76% 1010.8 hPa 0 mm - 169 W/m² -
1788476138 21.11° C 76% 1011 hPa 0 mm - 190 W/m² -
1788475834 21.67° C 74% 1011 hPa 0 mm - 183 W/m² -
1788475530 21.11° C 75% 1011 hPa 0 mm - 181 W/m² -
1788475226 21.67° C 74% 1011.1 hPa 0 mm - 155 W/m² -

* Rain latest hour (hover to see other rain measurements)
** Current wind speed in m/s (hover to see current wind gust speed)